North Myrtle Beach, SC

1:58 PM EST on December 14, 2019 (GMT -0500)
Grand Strand

Weather History for KCRE - October, 2019

Change the Weather History Date:

Saturday, October 26, 2019

  Actual Average Record
Temperature  
Mean Temperature 71 °F 62 °F  
Max Temperature 80 °F 72 °F 84 °F (2014)
Min Temperature 62 °F 52 °F 32 °F (1962)
Degree Days  
Heating Degree Days 0 5  
Month to date heating degree days 12 60  
Since 1 July heating degree days 12 64  
Cooling Degree Days 6 2  
Month to date cooling degree days 156 90  
Year to date cooling degree days 2339 1874  
Growing Degree Days 21 (Base 50)    
Moisture  
Dew Point 68 °F    
Average Humidity 84    
Maximum Humidity 100    
Minimum Humidity 67    
Precipitation  
Precipitation 0.00 in 0.09 in 1.97 in (2007)
Month to date precipitation 4.03 3.38  
Year to date precipitation 46.60 45.01  
Sea Level Pressure  
Sea Level Pressure 30.06 in    
Wind  
Wind Speed 8 mph (East)    
Max Wind Speed 15 mph    
Max Gust Speed 23 mph    
Visibility 10 miles    
Events      
T = Trace of Precipitation, MM = Missing Value Source: NWS Daily Summary

Daily Weather History Graph

Daily Weather History Graph

Search for Another Location

Airport or City:

Astronomy

Oct. 26, 2019 Rise Set
Actual Time 7:28 AM EDT 6:28 PM EDT
Civil Twilight 7:03 AM EDT 6:54 PM EDT
Nautical Twilight 6:33 AM EDT 7:23 PM EDT
Astronomical Twilight 6:04 AM EDT 7:52 PM EDT
Moon 5:31 AM EDT (10/26) 5:55 PM EDT (10/26)
Length of Visible Light 11h 50m
Length of Day
10h 59m
Waning Crescent, 3% of the Moon is Illuminated
Oct 26
Waning Crescent
Oct 27
New
Nov 4
First Quarter
Nov 12
Full
Nov 19
Last Quarter

Hourly Weather History & Observations

Time (EDT) Temp. Dew Point Humidity Pressure Visibility Wind Dir Wind Speed Gust Speed Precip Events Conditions
12:53 AM 64.0 °F 60.1 °F 87% 30.17 in 10.0 mi NE 4.6 mph - N/A   Clear
1:53 AM 63.0 °F 61.0 °F 93% 30.16 in 10.0 mi NE 4.6 mph - N/A   Clear
2:53 AM 66.0 °F 63.0 °F 90% 30.12 in 10.0 mi ENE 6.9 mph - N/A   Clear
3:53 AM 64.9 °F 64.0 °F 97% 30.11 in 10.0 mi ENE 6.9 mph - N/A   Clear
4:53 AM 66.0 °F 64.0 °F 93% 30.11 in 10.0 mi ENE 6.9 mph - N/A   Clear
5:53 AM 64.0 °F 63.0 °F 96% 30.11 in 10.0 mi NNE 4.6 mph - N/A   Clear
6:53 AM 64.0 °F 63.0 °F 96% 30.11 in 10.0 mi NNE 4.6 mph - N/A   Clear
7:53 AM 64.0 °F 63.0 °F 96% 30.10 in 8.0 mi NE 5.8 mph - N/A   Clear
8:53 AM 69.1 °F 66.9 °F 93% 30.12 in 10.0 mi ENE 5.8 mph - N/A   Scattered Clouds
9:53 AM 75.0 °F 66.9 °F 76% 30.12 in 10.0 mi East 10.4 mph - N/A   Overcast
10:53 AM 75.9 °F 66.9 °F 74% 30.12 in 10.0 mi East 10.4 mph - N/A   Overcast
11:53 AM 77.0 °F 66.9 °F 71% 30.11 in 10.0 mi East 13.8 mph - N/A   Overcast
12:53 PM 79.0 °F 68.0 °F 69% 30.09 in 10.0 mi East 12.7 mph - N/A   Mostly Cloudy
1:53 PM 78.1 °F 66.9 °F 68% 30.07 in 10.0 mi East 11.5 mph - N/A   Mostly Cloudy
2:53 PM 77.0 °F 66.9 °F 71% 30.06 in 10.0 mi East 10.4 mph - N/A   Overcast
3:53 PM 78.1 °F 66.9 °F 68% 30.04 in 10.0 mi East 12.7 mph 19.6 mph N/A   Scattered Clouds
4:53 PM 77.0 °F 66.0 °F 69% 30.03 in 10.0 mi East 10.4 mph 18.4 mph N/A   Scattered Clouds
5:53 PM 75.9 °F 66.9 °F 74% 30.03 in 10.0 mi East 10.4 mph 18.4 mph N/A   Scattered Clouds
6:53 PM 73.9 °F 68.0 °F 82% 30.02 in 10.0 mi East 9.2 mph - N/A   Partly Cloudy
7:53 PM 73.0 °F 69.1 °F 87% 30.02 in 10.0 mi East 12.7 mph 20.7 mph N/A   Mostly Cloudy
8:16 PM 73.0 °F 70.0 °F 90% 30.01 in 10.0 mi East 11.5 mph 19.6 mph N/A   Mostly Cloudy
8:28 PM 73.0 °F 71.1 °F 93% 30.01 in 10.0 mi East 12.7 mph 19.6 mph N/A   Mostly Cloudy
8:41 PM 73.0 °F 71.1 °F 93% 30.01 in 10.0 mi East 12.7 mph 21.9 mph N/A   Overcast
8:48 PM 73.4 °F 71.6 °F 94% 30.02 in 10.0 mi East 13.8 mph 21.9 mph N/A   Overcast
8:53 PM 73.0 °F 71.1 °F 93% 30.02 in 10.0 mi East 8.1 mph 20.7 mph N/A   Overcast
9:06 PM 73.0 °F 71.1 °F 93% 30.02 in 9.0 mi East 10.4 mph - N/A   Overcast
9:53 PM 73.0 °F 71.1 °F 93% 30.01 in 10.0 mi East 8.1 mph - N/A   Overcast
10:27 PM 73.0 °F 72.0 °F 96% 30.00 in 10.0 mi East 8.1 mph - N/A   Mostly Cloudy
10:33 PM 73.0 °F 72.0 °F 96% 30.00 in 10.0 mi East 6.9 mph - N/A   Mostly Cloudy
10:44 PM 73.0 °F 72.0 °F 96% 30.00 in 10.0 mi East 8.1 mph - N/A   Mostly Cloudy
10:53 PM 73.9 °F 72.0 °F 93% 30.00 in 10.0 mi ESE 5.8 mph - N/A   Scattered Clouds
11:31 PM 73.9 °F 72.0 °F 93% 29.99 in 10.0 mi East 5.8 mph - N/A   Mostly Cloudy
11:53 PM 73.9 °F 72.0 °F 93% 29.99 in 10.0 mi ESE 5.8 mph - N/A   Mostly Cloudy